www.pogodaiklimat.ru

Погода и климат >> Архив погоды >> Украина >> Ильичевск


ПОГОДА в Ильичёвске

  • Прогноз погоды в Ильичёвске
  • Монитор погоды в Ильичёвске
  • Климат города

АРХИВ ПОГОДЫ в Ильичёвске

Время (UTC), дата Ветер
(напр.,м/с)
 
Видим.   Явления Облачность Т
(С)
Тd
(С)
f
(%)
Тe
(С)
Тes
(С)
Комфортность P
(гПа)
Po
(гПа)
Тmin
(С)
Tmax
(С)
R
(мм)
R24
(мм)
S
(см)
15 15.10 СЗ 4 н/о 8 баллов +18.8 +13.2 70 +20 +20 1020.9 1014.7
18 15.10 СЗ 5 н/о 7 баллов +17.9 +12.3 70 +18 +18 1020.9 1014.7
21 15.10 СЗ 3 н/о 7 баллов +17.3 +12.4 73 +17 +17 1022.2 1016.0
00 16.10 З 9 7 баллов +10.4 68 1023.4 1008.0
03 16.10 С 4 н/о 6 баллов +12.0 +8.5 79 +10 +10 1025.1 1018.7
06 16.10 СЗ 4 н/о 7 баллов +11.8 +9.0 83 +10 +10 1027.7 1021.3
09 16.10 СЗ 3 н/о 5 баллов +16.2 +8.7 61 +16 +18 1027.6 1021.3
12 16.10 СЗ 3 40 км ясно +18.4 +6.4 45 +19 +22 1025.8 1026.0
15 16.10 СЗ 3 н/о ясно +17.7 +7.7 52 +18 +18 1027.6 1021.3
18 16.10 З 2 н/о ясно +15.0 +7.5 61 +15 +15 1027.6 1021.3
21 16.10 З 2 н/о ясно +15.0 +7.8 62 +15 +15 1026.3 1020.0
00 17.10 З 2 18 км ясно +13.7 +8.9 73 +13 +13 1023.9 1024.0
03 17.10 З 2 н/о ясно +12.3 +9.3 82 +11 +11 1025.1 1018.7
06 17.10 З 3 н/о ясно +13.8 +9.8 77 +13 +14 1025.0 1018.7
09 17.10 СЗ 3 н/о ясно +20.8 +12.2 58 +23 +28 комфорт 1024.9 1018.7
12 17.10 СЗ 4 30 км ясно +23.6 +13.0 51 +26 +29 жарко 1022.3 1022.0
15 17.10 З 2 н/о 3 балла +20.8 +12.0 57 +24 +24 комфорт 1023.5 1017.3
18 17.10 СЗ 2 н/о ясно +17.8 +11.4 66 +18 +18 1024.9 1018.7
21 17.10 СВ 1 н/о ясно +16.0 +12.7 81 +17 +17 1025.0 1018.7
00 18.10 В 2 19 км ясно +15.0 +12.1 83 +15 +15 1024.2 1024.0
03 18.10 СЗ 1 н/о дымка ясно +11.8 +10.4 91 +12 1025.1 1018.7
06 18.10 С 1 н/о дымка ясно +12.8 +12.2 96 +13 1025.0 1018.7
09 18.10 ЮВ 2 н/о дымка 8 баллов +17.0 +14.3 84 +17 1025.0 1018.7
12 18.10 ЮВ 2 н/о дымка 8 баллов +15.8 +14.0 89 +16 1023.6 1017.3
15 18.10 Ю 3 н/о дымка 2 балла +15.8 +15.2 96 +15 1022.3 1016.0
18 18.10 Ю 3 дымка 8 баллов +15.0 96 1021.7 1016.0
21 18.10 Ю 3 н/о дымка 10 баллов +14.8 +14.3 97 +14 1021.0 1014.7
00 19.10 Ю 2 200 м туман ?/? +13.8 +13.8 100 +13 +13 1019.3 1019.0
03 19.10 Ю 4 н/о туман н/о +13.7 +13.7 100 +12 1021.0 1014.7
06 19.10 Ю 4 н/о дымка 8 баллов +14.1 +13.3 95 +13 1021.0 1014.7
09 19.10 Ю 4 н/о 7 баллов +17.4 +14.7 84 +17 +18 1019.5 1013.3
12 19.10 Ю 4 21 км 8/0
[Ci sp]
+17.4 +14.3 82 +17 +19 1017.8 1018.0
15 19.10 Ю 3 н/о 7 баллов +16.0 +14.0 88 +16 +16 1018.2 1012.0
18 19.10 Ю 4 н/о дымка 2 балла +15.6 +14.5 93 +15 1018.2 1012.0
21 19.10 Ю 2 н/о 6 баллов +15.4 +13.9 91 +15 +15 1018.2 1012.0
00 20.10 ЮЗ 3 н/о 7 баллов +14.9 +13.1 89 +14 +14 1018.3 1012.0
03 20.10 ЮЗ 2 н/о 9 баллов +15.4 +13.6 89 +15 +15 1018.2 1012.0
06 20.10 Ю 1 7 баллов +14.0 79 1018.8 1013.3
09 20.10 штиль 0 н/о 7 баллов +16.5 +14.1 86 +16 +19 1019.5 1013.3
12 20.10 Ю 3 н/о 7 баллов +16.3 +14.0 86 +16 +17 1019.5 1013.3
15 20.10 Ю 2 н/о 7 баллов +15.5 +13.9 90 +15 +15 1019.6 1013.3
18 20.10 штиль 0 н/о 7 баллов +15.6 +13.1 85 +15 +15 1019.6 1013.3
21 20.10 штиль 0 н/о 9 баллов +15.4 +12.5 83 +15 +15 1021.0 1014.7
00 21.10 штиль 0 н/о 9 баллов +15.1 +12.8 86 +15 +15 1019.6 1013.3
03 21.10 В 1 н/о 7 баллов +15.0 +12.3 84 +16 +16 1019.6 1013.3
06 21.10 В 1 н/о 9 баллов +14.8 +13.0 89 +15 +15 1019.6 1013.3
09 21.10 В 2 н/о 9 баллов +15.2 +12.0 81 +15 +15 1019.6 1013.3
12 21.10 В 1 н/о 9 баллов +15.0 +11.8 81 +16 +16 1018.3 1012.0
15 21.10 ЮВ 2 н/о 7 баллов +14.8 +11.4 80 +14 +14 1017.0 1010.7
18 21.10 Ю 3 н/о 9 баллов +15.0 +12.1 83 +14 +14 1015.5 1009.3
21 21.10 Ю 3 н/о 9 баллов +15.3 +13.3 88 +15 +15 1014.2 1008.0
00 22.10 ЮЗ 2 н/о в посл. час ливневой дождь н/о +14.5 +12.9 90 +14 1012.9 1006.7 0.0
03 22.10 СЗ 4 н/о 9 баллов +13.0 +11.7 92 +11 1011.6 1005.3
06 22.10 СЗ 5 10 км {гроза, ливн. осадки} 10/9 360 м
[St As op]
+12.2 +10.6 90 +10 +10 1012.1 1012.0 +12.0 2
09 22.10 С 4 н/о 8 баллов +14.4 +11.4 82 +13 +14 1014.2 1008.0
12 22.10 С 5 8 баллов 77 1010.7 0.0

 

Местоположение метеостанции Ильичевск (Одесская область, Украина): широта 46.40 долгота 30.70 высота над уровнем моря 52 м.

В архиве по умолчанию представлена погода в Ильичёвске за последнюю неделю. Архивные данные за месяц целиком и за предыдущие месяцы, начиная с января 2011 года, Вы можете получить, выбрав интересующий диапазон дат из раскрывающегося списка и нажав кнопку "Ввод!".

Внимание! Время в таблицах - всемирное. Для получения местного времени необходимо прибавить поправку, которая в Ильичёвске равна 2 ч.

Смотрите также архив погоды в соседних городах и на ближайших метеорологических станциях:

Погода в Одессе (Одесская область, Украина) (6 км)
Погода в Белгород-Днестровском (Одесская область, Украина) (35 км)
Погода в Раздельной (Одесская область, Украина) (69 км)
Погода в Сербке (Одесская область, Украина) (69 км)
Погода в Заставе (Одесская область, Украина) (70 км)
Погода в Очакове (Николаевская область, Украина) (70 км)
Погода в Сарате (Одесская область, Украина) (90 км)
Погода в Штефан Водэ (Молдова) (94 км)
Погода в Тирасполе (Молдова) (101 км)
Погода в Вилково (Одесская область, Украина) (108 км)

Пояснения к столбцам:

Ветер - указаны скорость ветра в м/с - средняя за 10 мин, порывы в срок и между сроками (в фигурных скобках) и направление, откуда дует ветер: С - северный, СВ - северо-восточный, В - восточный, ЮВ - юго-восточный, Ю - южный, ЮЗ - юго-западный, З - западный, СЗ - северо-западный.
Видимость - горизонтальная дальность видимости в метрах или километрах. При видимости от 1 до 10 км при отсутствии осадков обычно наблюдается дымка, при ухудшении видимости до 1 км и менее - туман. В сухую погоду видимость может ухудшаться дымом, пылью или мглою.
Явления - указаны атмосферные явления, наблюдавшиеся в срок или в последний час перед сроком; фигурными скобками обозначены явления, наблюдавшиеся между сроками (за 1-3 часа до срока); квадратными скобками обозначены град или гололедные отложения с указанием их диаметра в мм.
Облачность - указаны через наклонную черту общая и нижняя облачность в баллах и высота нижней границы облаков в метрах; квадратными скобками обозначены формы облаков: Ci - перистые, Cs - перисто-слоистые, Cc - перисто-кучевые, Ac - высококучевые, As - высокослоистые, Sc - слоисто-кучевые, Ns - слоисто-дождевые, Cu - кучевые, Cb - кучево-дождевые. Подробнее классификацию облаков см. в Атласе облаков (PDF).
T - Температура воздуха - температура, измеренная на высоте 2 м над землей.
Td - Температура точки росы - температура, при понижении до которой содержащийся в воздухе водяной пар достигнет насыщения.
f - Относительная влажность воздуха - влажноcть воздуха, измеренная на высоте 2 м над землей.
Te - Эффективная температура - температура, которую ощущает одетый по сезону человек в тени. Характеристика душности погоды. При расчете учитывается влияние влажности воздуха и скорости ветра на теплоощущения человека.
Tes - Эффективная температура на солнце - температура, которую ощущает человек, с поправкой на солнечный нагрев. Характеристика знойности погоды. Зависит от высоты солнца над горизонтом, облачности и скорости ветра. Ночью, в пасмурную погоду, а также при ветре 12 м/с и более поправка равна нулю.
P - Атмосферное давление - приведенное к уровню моря атмосферное давление.
Po - Атмосферное давление - измеренное на уровне метеостанции атмосферное давление.
Tmin - Минимальная температура - минимум температуры воздуха на высоте 2 м над землей.
Tmax - Максимальная температура - максимум температуры воздуха на высоте 2 м над землей.
R - Количество осадков - Количество выпавших осадков за период времени, мм. При наведении курсора мыши на число - период времени, за который выпало указанное количество осадков.
R24 - Количество осадков - Количество выпавших осадков за 24 часа, мм.
S - Снежный покров - Высота снежного покрова, см. При наведении курсора мыши на число - состояние снежного покрова и степень покрытия местности в баллах.